Location: Pl�tzky
(52.0521°N, 11.8020°E)
Time: 03:33:32
(UTC+00:00)

Cosmos 1933 - Pass Details

Date: 22 November 2019
Orbit: 546 x 565 km, 82.5° (Epoch: 07 December)

Event Time Altitude Azimuth Distance (km) Brightness Sun altitude
Rises 17:07:13 0° 179° (S) 2,735 7.0 -17.0°
Reaches altitude 10° 17:09:24 10° 176° (S) 1,841 6.1 -17.4°
Maximum altitude 17:13:23 61° 97° (E) 638 3.3 -18.0°
Enters shadow 17:15:37 25° 24° (NNE) 1,160 4.6 -18.3°
